Regional Weather Roundup
Issued by NWS

Home | Current Version | Previous Version | Graphics & Text | Print | Product List | Glossary On
Versions: 1 2 3 4 5 6 7 8 9 10 11 12 13 14 15 16 17 18 19 20 21 22 23 24 25 26 27 28 29 30 31 32 33 34 35 36 37 38 39 40 41 42 43 44 45 46 47 48 49 50
000
ASUS43 KBIS 201810
RWRND

NORTH DAKOTA REGIONAL WEATHER ROUNDUP
NATIONAL WEATHER SERVICE BISMARCK ND
1200 PM CST MON FEB 20 2017

NOTE: "FAIR" INDICATES FEW OR NO CLOUDS BELOW 12,000 FEET WITH NO
SIGNIFICANT WEATHER AND/OR OBSTRUCTIONS TO VISIBILITY.


NDZ001>003-009>011-017-201900-
NORTHWEST NORTH DAKOTA

CITY           SKY/WX    TMP DP  RH WIND       PRES   REMARKS
WILLISTON      FAIR      41  32  70 SW16      29.72S
6HR MIN TEMP:  32; 6HR MAX TEMP:  43;

MINOT          FAIR      40  35  83 W13       29.68S
MINOT AFB      MOSUNNY   37  34  89 W6        29.67S
$$

NDZ018>021-031>035-040>046-201900-
SOUTHWEST NORTH DAKOTA

CITY           SKY/WX    TMP DP  RH WIND       PRES   REMARKS
BISMARCK       FAIR      43  37  79 NW10      29.72S
6HR MIN TEMP:  37; 6HR MAX TEMP:  44; 6HR PCP:  0.20;

DICKINSON      FAIR      49  34  56 NW18      29.73R
GARRISON         N/A     40  34  79 NW15      29.70R
6HR MIN TEMP:  33; 6HR MAX TEMP:  40;

HETTINGER ARPT SUNNY     50  33  52 NW23G29   29.78R
$$

NDZ004>008-012>016-024-026-027-054-201900-
NORTHEAST NORTH DAKOTA

CITY           SKY/WX    TMP DP  RH WIND       PRES   REMARKS
GRAND FORKS    CLOUDY    37  33  85 W13       29.60R
GRND FRKS AFB  LGT RAIN  37  37  99 NW14      29.60F
DEVILS LAKE    RAIN      34  34 100 NW14      29.65R FOG
$$

NDZ022-023-025-028>030-036>039-047>053-201900-
SOUTHEAST NORTH DAKOTA

CITY           SKY/WX    TMP DP  RH WIND       PRES   REMARKS
FARGO          CLOUDY    50  49  96 SW10      29.61R FOG
6HR MIN TEMP:  50; 6HR MAX TEMP:  51; 6HR PCP:  0.23;

JAMESTOWN      MIX PCPN  36  34  92 NW14      29.66R
$$




USA.gov is the U.S. government's official web portal to all federal, state and local government web resources and services.